Weather History for Grand Junction, CO

Change the Weather History Date:

Sunday, March 31, 2013

  Actual Average Record
Temperature  
Mean Temperature 55 °F 47 °F  
Max Temperature 71 °F 61 °F 80 °F (2012)
Min Temperature 38 °F 34 °F 16 °F (1980)
Degree Days  
Heating Degree Days 10 18  
Month to date heating degree days 649 653  
Since 1 July heating degree days 5412 5032  
Cooling Degree Days 0 0  
Month to date cooling degree days 0 0  
Year to date cooling degree days 0 0  
Growing Degree Days 5 (Base 50)    
Moisture  
Dew Point 19 °F    
Average Humidity 34    
Maximum Humidity 59    
Minimum Humidity 9    
Precipitation  
Precipitation 0.00 in 0.03 in 0.62 in (1894)
Month to date precipitation 0.35 0.92  
Year to date precipitation 1.35 2.04  
Snow  
Snow 0.00 in 0.10 in 3.30 in (1979)
Month to date snowfall T 2.6  
Since 1 July snowfall 20.0 18.1  
Snow Depth 0.00 in    
Sea Level Pressure  
Sea Level Pressure 29.95 in    
Wind  
Wind Speed 7 mph (ENE)    
Max Wind Speed 18 mph    
Max Gust Speed 23 mph    
Visibility 10 miles    
Events      
T = Trace of Precipitation, MM = Missing Value Source: NWS Daily Summary

Daily Weather History Graph

Daily Weather History Graph

Search for Another Location

Airport:

Trip Planner

Search our weather history database for the weather conditions in past years. The results will help you decide how hot, cold, wet, or windy it might be!

Date:

Astronomy

Mar. 31, 2013 Rise Set
Actual Time 6:59 AM MDT 7:37 PM MDT
Civil Twilight 6:32 AM MDT 8:04 PM MDT
Nautical Twilight 6:01 AM MDT 8:36 PM MDT
Astronomical Twilight 5:28 AM MDT 9:08 PM MDT
Moon No Moon Rise 9:52 AM MDT (3/31)
Length of Visible Light 13h 31m
Length of Day
12h 37m
Waning Gibbous, 77% of the Moon is Illuminated
Mar 31
Waning Gibbous
Apr 2
Last Quarter
Apr 10
New
Apr 18
First Quarter
Apr 25
Full

Hourly Weather History & Observations

Time (MDT) Temp. Windchill Dew Point Humidity Pressure Visibility Wind Dir Wind Speed Gust Speed Precip Events Conditions
12:53 AM 46.9 °F - 27.0 °F 46% 30.01 in 10.0 mi East 4.6 mph - N/A   Clear
1:53 AM 45.0 °F 43.5 °F 26.1 °F 48% 30.01 in 10.0 mi East 3.5 mph - N/A   Clear
2:53 AM 44.1 °F 39.5 °F 27.0 °F 51% 30.00 in 10.0 mi ENE 8.1 mph - N/A   Clear
3:53 AM 44.1 °F 42.5 °F 27.0 °F 51% 29.99 in 10.0 mi East 3.5 mph - N/A   Clear
4:53 AM 41.0 °F 38.0 °F 27.0 °F 57% 30.01 in 10.0 mi East 4.6 mph - N/A   Clear
5:53 AM 39.9 °F 35.1 °F 27.0 °F 60% 30.02 in 10.0 mi East 6.9 mph - N/A   Clear
6:53 AM 41.0 °F - 26.1 °F 55% 30.04 in 10.0 mi Calm Calm - N/A   Clear
7:53 AM 41.0 °F - 27.0 °F 57% 30.07 in 10.0 mi Calm Calm - N/A   Clear
8:53 AM 48.0 °F - 27.0 °F 44% 30.06 in 10.0 mi SSE 4.6 mph - N/A   Clear
9:53 AM 55.0 °F - 26.1 °F 33% 30.03 in 10.0 mi ESE 6.9 mph - N/A   Clear
10:53 AM 57.0 °F - 26.1 °F 30% 30.02 in 10.0 mi SSE 9.2 mph - N/A   Clear
11:53 AM 61.0 °F - 26.1 °F 26% 30.01 in 10.0 mi SSE 5.8 mph - N/A   Clear
12:53 PM 64.0 °F - 26.1 °F 24% 29.99 in 10.0 mi Variable 4.6 mph - N/A   Clear
1:53 PM 66.9 °F - 24.1 °F 20% 29.95 in 10.0 mi NW 12.7 mph - N/A   Clear
2:53 PM 69.1 °F - 19.0 °F 15% 29.91 in 10.0 mi WNW 13.8 mph 19.6 mph N/A   Clear
3:53 PM 69.1 °F - 12.9 °F 11% 29.88 in 10.0 mi Variable 6.9 mph 18.4 mph N/A   Clear
4:53 PM 70.0 °F - 9.0 °F 9% 29.86 in 10.0 mi NNW 12.7 mph 18.4 mph N/A   Partly Cloudy
5:53 PM 69.1 °F - 6.1 °F 9% 29.85 in 10.0 mi NW 16.1 mph 20.7 mph N/A   Partly Cloudy
6:53 PM 66.0 °F - 9.0 °F 11% 29.85 in 10.0 mi NNW 13.8 mph - N/A   Partly Cloudy
7:53 PM 61.0 °F - 8.1 °F 12% 29.86 in 10.0 mi North 9.2 mph - N/A   Scattered Clouds
8:53 PM 54.0 °F - 3.9 °F 13% 29.87 in 10.0 mi ENE 4.6 mph - N/A   Clear
9:53 PM 52.0 °F - 6.1 °F 16% 29.86 in 10.0 mi NE 4.6 mph - N/A   Clear
10:53 PM 53.1 °F - 10.9 °F 19% 29.86 in 10.0 mi ESE 4.6 mph - N/A   Clear
11:53 PM 51.1 °F - 12.9 °F 22% 29.85 in 10.0 mi Calm Calm - N/A   Scattered Clouds